Home > Weather > Demmin > Past weeks

Flag for Germany Past Weather in Demmin, Mecklenburg-Western Pomerania, Germany — Yesterday and Last 2 Weeks

Now
54 °F

Passing clouds.


Feels Like: 51 °F
Forecast: 54 / 77 °F
Wind: 8 mph from West

Location: Laage

Current Time: Aug 30, 2016 at 5:15:02 AM

Latest Report: Aug 30, 2016 at 4:20 AM


Visibility: N/A

Pressure: 30.18 "Hg

Humidity: 88%

Dew Point: 50 °F

Location of DemminLocation

Past Weather in Demmin — Graph

°F

Demmin Temperature Yesterday

Maximum temperature yesterday: 66 °F (at 12:20 AM)
Minimum temperature yesterday: 59 °F (at 9:20 PM)
Average temperature yesterday: 63 °F

High & Low Weather Summary for the Past Weeks

 TemperatureHumidityPressure
High91 °F (Aug 26, 3:20 PM)100% (Aug 16, 3:20 AM)30.33 "Hg (Aug 16, 3:20 AM)
Low45 °F (Aug 17, 6:20 AM)29% (Aug 25, 4:55 PM)29.80 "Hg (Aug 18, 7:46 AM)
Average65 °F74%30.05 "Hg
* Reported Aug 15 3:20 AM — Aug 30 3:20 AM, Demmin, Weather by CustomWeather, © 2016

Note: Actual official high and low records may vary slightly from our data, if they occured in-between our weather recording intervals... More about our weather records

Advertising

Demmin Weather History for the Previous 24 Hours

Scroll right to see more
 ConditionsComfort  
Time TempWeatherWind HumidityBarometerVisibility
3:20 AM
Tue, Aug 30
54 °FPassing clouds.7 mph88%30.15 "HgN/A
2:20 AM55 °FCool.8 mph88%30.15 "HgN/A
1:20 AM57 °FCool.9 mph77%30.15 "HgN/A
12:20 AM59 °FPassing clouds.13 mph72%30.12 "HgN/A
11:20 PM
Mon, Aug 29
59 °FPassing clouds.10 mph72%30.12 "HgN/A
10:20 PM59 °FCool.13 mph72%30.09 "HgN/A
9:20 PM59 °FPassing clouds.12 mph72%30.07 "HgN/A
8:20 PM61 °FPassing clouds.10 mph68%30.07 "HgN/A
7:20 PM64 °FPassing clouds.14 mph60%30.04 "HgN/A
6:20 PM64 °FPassing clouds.16 mph68%30.04 "HgN/A
4:20 PM66 °FPartly sunny.13 mph68%30.01 "HgN/A
3:20 PM66 °FPartly sunny.13 mph64%29.98 "HgN/A
2:20 PM66 °FBroken clouds.21 mph64%29.98 "HgN/A
1:20 PM66 °FBroken clouds.16 mph68%29.95 "HgN/A
12:20 PM64 °FSprinkles. Partly sunny.17 mph78%29.92 "Hg5 mi
11:20 AM64 °FSprinkles. Broken clouds.13 mph83%29.89 "Hg3 mi
10:20 AM64 °FScattered showers. Broken clouds.13 mph83%29.89 "Hg5 mi
9:20 AM63 °FBroken clouds.10 mph88%29.89 "HgN/A
8:20 AM63 °FBroken clouds.12 mph88%29.86 "HgN/A
7:20 AM61 °FBroken clouds.9 mph88%29.86 "HgN/A
6:20 AM61 °FPassing clouds.9 mph88%29.86 "HgN/A
5:20 AM61 °FPassing clouds.9 mph88%29.86 "HgN/A
Weather by CustomWeather, © 2016

See weather overviewHow to use our weather pages